,,Stat6,,Stat2,,Stat8,,Stat9,,Stat10,,Wind1,,Wind1,
time,status,PA1M_AVG,status,PR1M_SUM,status,RH1M_AVG,status,SR1M_AVG,status,TA1M_AVG,status,W1dAve1m,status,W1sAve1m,
2004-06-11, 00:00:00,VALID,918.184,VALID,0,VALID,99.456,VALID,0,VALID,19.8463,VALID,42,VALID,0.0436357,
2004-06-11, 00:01:00,VALID,918.158,VALID,0,VALID,99.62,VALID,0,VALID,19.8234,VALID,42,VALID,0.00659722,
2004-06-11, 00:02:00,VALID,918.146,VALID,0,VALID,99.8489,VALID,0,VALID,19.8662,VALID,42,VALID,0.0442073,
2004-06-11, 00:03:00,VALID,918.128,VALID,0,VALID,99.9794,VALID,0,VALID,19.9206,VALID,42,VALID,0,
2004-06-11, 00:04:00,VALID,918.101,VALID,0,VALID,99.8616,VALID,0,VALID,19.9014,VALID,42,VALID,0,
2004-06-11, 00:05:00,VALID,918.078,VALID,0,VALID,99.5527,VALID,-0.0679233,VALID,19.8247,VALID,41,VALID,0.346112,
2004-06-11, 00:06:00,VALID,918.07,VALID,0,VALID,99.5806,VALID,-0.0849042,VALID,19.7867,VALID,41,VALID,0.532118,
2004-06-11, 00:07:00,VALID,918.056,VALID,0,VALID,99.7497,VALID,-0.0679233,VALID,19.7964,VALID,41,VALID,0.131392,
2004-06-11, 00:08:00,VALID,918.051,VALID,0,VALID,99.8629,VALID,-0.0679233,VALID,19.8187,VALID,41,VALID,0.0453869,
2004-06-11, 00:09:00,VALID,918.052,VALID,0,VALID,99.8095,VALID,-0.0849042,VALID,19.8125,VALID,41,VALID,0.210366,
2004-06-11, 00:10:00,VALID,918.053,VALID,0,VALID,99.7243,VALID,-0.0849042,VALID,19.7899,VALID,41,VALID,0.175781,
2004-06-11, 00:11:00,VALID,918.065,VALID,0,VALID,99.6099,VALID,-0.0849042,VALID,19.7509,VALID,41,VALID,0.241797,
2004-06-11, 00:12:00,VALID,918.085,VALID,0,VALID,99.6404,VALID,-0.0509425,VALID,19.7181,VALID,41,VALID,0.0790551,
2004-06-11, 00:13:00,VALID,918.104,VALID,0,VALID,99.7548,VALID,-0.0339617,VALID,19.7345,VALID,41,VALID,0,
2004-06-11, 00:14:00,VALID,918.117,VALID,0,VALID,99.7663,VALID,-0.0849042,VALID,19.7509,VALID,41,VALID,0,
2004-06-11, 00:15:00,VALID,918.124,VALID,0,VALID,99.6582,VALID,-0.0339617,VALID,19.7216,VALID,41,VALID,0.0674543,
2004-06-11, 00:16:00,VALID,918.146,VALID,0,VALID,99.4102,VALID,-0.0509425,VALID,19.6513,VALID,41,VALID,0.00114329,
2004-06-11, 00:17:00,VALID,918.157,VALID,0,VALID,99.4064,VALID,-0.0509425,VALID,19.6056,VALID,41,VALID,0,
2004-06-11, 00:18:00,VALID,918.154,VALID,0,VALID,99.4077,VALID,-0.0509425,VALID,19.5862,VALID,41,VALID,0,
2004-06-11, 00:19:00,VALID,918.13,VALID,0,VALID,99.5717,VALID,-0.0509425,VALID,19.5929,VALID,41,VALID,0,
2004-06-11, 00:20:00,VALID,918.102,VALID,0,VALID,99.5781,VALID,-0.0509425,VALID,19.5991,VALID,41,VALID,0,
2004-06-11, 00:21:00,VALID,918.092,VALID,0,VALID,99.5196,VALID,-0.0849042,VALID,19.5832,VALID,41,VALID,0,
2004-06-11, 00:22:00,VALID,918.1,VALID,0,VALID,99.7472,VALID,-0.101885,VALID,19.6024,VALID,41,VALID,0,
2004-06-11, 00:23:00,VALID,918.102,VALID,0,VALID,99.9715,VALID,-0.0679233,VALID,19.6771,VALID,41,VALID,0,
2004-06-11, 00:24:00,VALID,918.101,VALID,0,VALID,100,VALID,-0.0849042,VALID,19.7286,VALID,41,VALID,0,
2004-06-11, 00:25:00,VALID,918.103,VALID,0,VALID,100,VALID,-0.0849042,VALID,19.735,VALID,41,VALID,0,
2004-06-11, 00:26:00,VALID,918.105,VALID,0,VALID,100,VALID,-0.101885,VALID,19.7452,VALID,41,VALID,0.152158,
2004-06-11, 00:27:00,VALID,918.113,VALID,0,VALID,99.779,VALID,-0.0339617,VALID,19.7089,VALID,138,VALID,0.556597,
2004-06-11, 00:28:00,VALID,918.136,VALID,0,VALID,99.7599,VALID,-0.0679233,VALID,19.6669,VALID,178,VALID,0.594638,
2004-06-11, 00:29:00,VALID,918.154,VALID,0,VALID,99.9901,VALID,-0.0679233,VALID,19.699,VALID,180,VALID,0.61849,
2004-06-11, 00:30:00,VALID,918.157,VALID,0,VALID,100,VALID,0.0509425,VALID,19.7658,VALID,181,VALID,0.234375,
2004-06-11, 00:31:00,VALID,918.179,VALID,0,VALID,100,VALID,0.0509425,VALID,19.7854,VALID,181,VALID,0.290516,
2004-06-11, 00:32:00,VALID,918.192,VALID,0,VALID,100,VALID,0.0339617,VALID,19.7658,VALID,181,VALID,0.261242,
2004-06-11, 00:33:00,VALID,918.194,VALID,0,VALID,100,VALID,0.0509425,VALID,19.769,VALID,181,VALID,0.206745,
2004-06-11, 00:34:00,VALID,918.213,VALID,0,VALID,100,VALID,0,VALID,19.8304,VALID,181,VALID,0.190696,
2004-06-11, 00:35:00,VALID,918.208,VALID,0,VALID,100,VALID,0,VALID,19.8376,VALID,180,VALID,0.278963,
2004-06-11, 00:36:00,VALID,918.216,VALID,0,VALID,100,VALID,-0.0849042,VALID,19.7998,VALID,180,VALID,0.0271577,
2004-06-11, 00:37:00,VALID,918.213,VALID,0,VALID,100,VALID,-0.0849042,VALID,19.7318,VALID,180,VALID,0,
2004-06-11, 00:38:00,VALID,918.204,VALID,0,VALID,99.9311,VALID,-0.0679233,VALID,19.6573,VALID,180,VALID,0,
2004-06-11, 00:39:00,VALID,918.17,VALID,0,VALID,99.9906,VALID,-0.0849042,VALID,19.6289,VALID,180,VALID,0,
2004-06-11, 00:40:00,VALID,918.158,VALID,0,VALID,100,VALID,-0.0679233,VALID,19.7035,VALID,180,VALID,0,
2004-06-11, 00:41:00,VALID,918.166,VALID,0,VALID,100,VALID,-0.0509425,VALID,19.7837,VALID,180,VALID,0,
2004-06-11, 00:42:00,VALID,918.162,VALID,0,VALID,100,VALID,-0.0849042,VALID,19.8321,VALID,180,VALID,0,
2004-06-11, 00:43:00,VALID,918.156,VALID,0,VALID,100,VALID,-0.0849042,VALID,19.8324,VALID,180,VALID,0,
2004-06-11, 00:44:00,VALID,918.137,VALID,0,VALID,99.9524,VALID,-0.0679233,VALID,19.7194,VALID,180,VALID,0,
2004-06-11, 00:45:00,VALID,918.11,VALID,0,VALID,99.9952,VALID,-0.0849042,VALID,19.6386,VALID,180,VALID,0,
2004-06-11, 00:46:00,VALID,918.118,VALID,0,VALID,100,VALID,-0.0679233,VALID,19.6128,VALID,180,VALID,0,
2004-06-11, 00:47:00,VALID,918.084,VALID,0,VALID,100,VALID,-0.0849042,VALID,19.6414,VALID,180,VALID,0.0948933,
2004-06-11, 00:48:00,VALID,918.09,VALID,0,VALID,100,VALID,-0.0169808,VALID,19.6868,VALID,180,VALID,0.292683,
2004-06-11, 00:49:00,VALID,918.099,VALID,0,VALID,100,VALID,-0.0339617,VALID,19.7189,VALID,180,VALID,0.323242,
2004-06-11, 00:50:00,VALID,918.104,VALID,0,VALID,100,VALID,-0.0169808,VALID,19.6503,VALID,180,VALID,0.0970982,
2004-06-11, 00:51:00,VALID,918.11,VALID,0,VALID,99.8299,VALID,0,VALID,19.55,VALID,152,VALID,0.582031,
2004-06-11, 00:52:00,VALID,918.106,VALID,0,VALID,99.9751,VALID,-0.0169808,VALID,19.4921,VALID,131,VALID,0.83754,
2004-06-11, 00:53:00,VALID,918.095,VALID,0,VALID,100,VALID,0.0169808,VALID,19.5174,VALID,130,VALID,0.865854,
2004-06-11, 00:54:00,VALID,918.085,VALID,0,VALID,100,VALID,0.0169808,VALID,19.5857,VALID,130,VALID,0.779492,
2004-06-11, 00:55:00,VALID,918.085,VALID,0,VALID,100,VALID,0,VALID,19.618,VALID,130,VALID,0.590732,
2004-06-11, 00:56:00,VALID,918.073,VALID,0,VALID,100,VALID,0.0169808,VALID,19.5947,VALID,130,VALID,0.440549,
2004-06-11, 00:57:00,VALID,918.065,VALID,0,VALID,100,VALID,0,VALID,19.6053,VALID,136,VALID,0.466704,
2004-06-11, 00:58:00,VALID,918.06,VALID,0,VALID,100,VALID,0,VALID,19.586,VALID,145,VALID,0.421094,
2004-06-11, 00:59:00,VALID,918.046,VALID,0,VALID,100,VALID,0,VALID,19.5626,VALID,145,VALID,0.326923,
2004-06-11, 01:00:00,VALID,918.036,VALID,0,VALID,100,VALID,0,VALID,19.5341,VALID,143,VALID,0.373047,
2004-06-11, 01:01:00,VALID,918.028,VALID,0,VALID,100,VALID,0.0169808,VALID,19.5112,VALID,142,VALID,0.203125,
2004-06-11, 01:02:00,VALID,918.009,VALID,0,VALID,100,VALID,0,VALID,19.4826,VALID,142,VALID,0.25744,
2004-06-11, 01:03:00,VALID,917.996,VALID,0,VALID,100,VALID,0.0169808,VALID,19.4469,VALID,142,VALID,0.372396,
2004-06-11, 01:04:00,VALID,917.963,VALID,0,VALID,100,VALID,0.0339617,VALID,19.398,VALID,136,VALID,0.549964,
2004-06-11, 01:05:00,VALID,917.952,VALID,0,VALID,100,VALID,0.0339617,VALID,19.3503,VALID,133,VALID,0.704613,
2004-06-11, 01:06:00,VALID,917.955,VALID,0,VALID,100,VALID,0.0169808,VALID,19.3076,VALID,134,VALID,0.804688,
2004-06-11, 01:07:00,VALID,917.956,VALID,0,VALID,100,VALID,0.0169808,VALID,19.3344,VALID,142,VALID,0.825107,
2004-06-11, 01:08:00,VALID,917.953,VALID,0,VALID,100,VALID,0.0169808,VALID,19.3339,VALID,137,VALID,0.772017,
2004-06-11, 01:09:00,VALID,917.956,VALID,0,VALID,100,VALID,0.0169808,VALID,19.344,VALID,130,VALID,0.915968,
2004-06-11, 01:10:00,VALID,917.961,VALID,0,VALID,100,VALID,0,VALID,19.357,VALID,133,VALID,0.949479,
2004-06-11, 01:11:00,VALID,917.96,VALID,0,VALID,100,VALID,0.0339617,VALID,19.3408,VALID,131,VALID,0.969249,
2004-06-11, 01:12:00,VALID,917.967,VALID,0,VALID,100,VALID,0,VALID,19.3272,VALID,129,VALID,0.849306,
2004-06-11, 01:13:00,VALID,917.971,VALID,0,VALID,100,VALID,0.0169808,VALID,19.308,VALID,121,VALID,0.66673,
2004-06-11, 01:14:00,VALID,917.947,VALID,0,VALID,100,VALID,0.0169808,VALID,19.3021,VALID,123,VALID,0.368164,
2004-06-11, 01:15:00,VALID,917.949,VALID,0,VALID,100,VALID,0,VALID,19.2917,VALID,119,VALID,0.307231,
2004-06-11, 01:16:00,VALID,917.92,VALID,0,VALID,100,VALID,0,VALID,19.3244,VALID,112,VALID,0.476744,
2004-06-11, 01:17:00,VALID,917.909,VALID,0,VALID,100,VALID,0.0169808,VALID,19.3433,VALID,96,VALID,0.656064,
2004-06-11, 01:18:00,VALID,917.873,VALID,0,VALID,100,VALID,0.0169808,VALID,19.3957,VALID,96,VALID,0.62609,
2004-06-11, 01:19:00,VALID,917.86,VALID,0,VALID,100,VALID,0,VALID,19.4439,VALID,96,VALID,0.536005,
2004-06-11, 01:20:00,VALID,917.854,VALID,0,VALID,100,VALID,0,VALID,19.4732,VALID,96,VALID,0.47311,
2004-06-11, 01:21:00,VALID,917.858,VALID,0,VALID,100,VALID,0.0169808,VALID,19.4826,VALID,96,VALID,0.446039,
2004-06-11, 01:22:00,VALID,917.858,VALID,0,VALID,100,VALID,0.0169808,VALID,19.5144,VALID,96,VALID,0.242188,
2004-06-11, 01:23:00,VALID,917.857,VALID,0,VALID,100,VALID,0,VALID,19.5249,VALID,96,VALID,0.374814,
2004-06-11, 01:24:00,VALID,917.836,VALID,0,VALID,100,VALID,-0.0169808,VALID,19.5311,VALID,96,VALID,0.463663,
2004-06-11, 01:25:00,VALID,917.839,VALID,0,VALID,100,VALID,0,VALID,19.5216,VALID,98,VALID,0.607887,
2004-06-11, 01:26:00,VALID,917.829,VALID,0,VALID,100,VALID,0,VALID,19.5087,VALID,103,VALID,0.839504,
2004-06-11, 01:27:00,VALID,917.818,VALID,0,VALID,100,VALID,-0.0169808,VALID,19.4633,VALID,101,VALID,0.540396,
2004-06-11, 01:28:00,VALID,917.809,VALID,0,VALID,100,VALID,0,VALID,19.3957,VALID,81,VALID,0.553329,
2004-06-11, 01:29:00,VALID,917.795,VALID,0,VALID,100,VALID,-0.0169808,VALID,19.3632,VALID,84,VALID,0.615327,
2004-06-11, 01:30:00,VALID,917.788,VALID,0,VALID,100,VALID,0,VALID,19.3803,VALID,88,VALID,0.740885,
2004-06-11, 01:31:00,VALID,917.786,VALID,0,VALID,100,VALID,0,VALID,19.3801,VALID,88,VALID,0.734557,
2004-06-11, 01:32:00,VALID,917.773,VALID,0,VALID,100,VALID,0,VALID,19.3637,VALID,95,VALID,0.864524,
2004-06-11, 01:33:00,VALID,917.76,VALID,0,VALID,100,VALID,0,VALID,19.3826,VALID,111,VALID,1.01598,
2004-06-11, 01:34:00,VALID,917.743,VALID,0,VALID,100,VALID,0.0339617,VALID,19.4114,VALID,114,VALID,1.23419,
2004-06-11, 01:35:00,VALID,917.74,VALID,0,VALID,100,VALID,-0.0509425,VALID,19.3992,VALID,114,VALID,1.06631,
2004-06-11, 01:36:00,VALID,917.732,VALID,0,VALID,100,VALID,-0.101885,VALID,19.3711,VALID,89,VALID,0.916667,
2004-06-11, 01:37:00,VALID,917.71,VALID,0,VALID,100,VALID,-0.101885,VALID,19.3676,VALID,81,VALID,0.847565,
2004-06-11, 01:38:00,VALID,917.694,VALID,0,VALID,100,VALID,-0.0849042,VALID,19.3649,VALID,102,VALID,0.937314,
2004-06-11, 01:39:00,VALID,917.685,VALID,0,VALID,100,VALID,-0.0679233,VALID,19.3167,VALID,121,VALID,1.04173,
2004-06-11, 01:40:00,VALID,917.653,VALID,0,VALID,100,VALID,-0.101885,VALID,19.274,VALID,113,VALID,1.1332,
2004-06-11, 01:41:00,VALID,917.637,VALID,0,VALID,100,VALID,-0.101885,VALID,19.2549,VALID,121,VALID,1.20785,
2004-06-11, 01:42:00,VALID,917.615,VALID,0,VALID,100,VALID,-0.101885,VALID,19.2452,VALID,128,VALID,1.23917,
2004-06-11, 01:43:00,VALID,917.609,VALID,0,VALID,100,VALID,-0.101885,VALID,19.2457,VALID,128,VALID,1.1492,
2004-06-11, 01:44:00,VALID,917.582,VALID,0,VALID,100,VALID,-0.101885,VALID,19.2223,VALID,100,VALID,0.998785,
2004-06-11, 01:45:00,VALID,917.572,VALID,0,VALID,100,VALID,-0.101885,VALID,19.2101,VALID,84,VALID,0.797637,
2004-06-11, 01:46:00,VALID,917.565,VALID,0,VALID,100,VALID,-0.101885,VALID,19.1548,VALID,62,VALID,0.616097,
2004-06-11, 01:47:00,VALID,917.544,VALID,0,VALID,100,VALID,-0.0849042,VALID,19.1811,VALID,68,VALID,0.778888,
2004-06-11, 01:48:00,VALID,917.54,VALID,0,VALID,100,VALID,-0.101885,VALID,19.2131,VALID,58,VALID,0.917515,
2004-06-11, 01:49:00,VALID,917.524,VALID,0,VALID,100,VALID,-0.101885,VALID,19.2352,VALID,82,VALID,1.00039,
2004-06-11, 01:50:00,VALID,917.504,VALID,0,VALID,100,VALID,-0.101885,VALID,19.2842,VALID,90,VALID,0.829975,
2004-06-11, 01:51:00,VALID,917.495,VALID,0,VALID,100,VALID,-0.0849042,VALID,19.3033,VALID,101,VALID,1.08073,
2004-06-11, 01:52:00,VALID,917.489,VALID,0,VALID,100,VALID,-0.101885,VALID,19.3391,VALID,114,VALID,1.0724,
2004-06-11, 01:53:00,VALID,917.484,VALID,0,VALID,100,VALID,-0.0509425,VALID,19.3487,VALID,92,VALID,0.85404,
2004-06-11, 01:54:00,VALID,917.488,VALID,0,VALID,100,VALID,-0.135847,VALID,19.3455,VALID,103,VALID,0.603693,
2004-06-11, 01:55:00,VALID,917.485,VALID,0,VALID,100,VALID,-0.0679233,VALID,19.3388,VALID,107,VALID,0.701029,
2004-06-11, 01:56:00,VALID,917.491,VALID,0,VALID,100,VALID,-0.101885,VALID,19.3296,VALID,116,VALID,0.658346,
2004-06-11, 01:57:00,VALID,917.485,VALID,0,VALID,100,VALID,-0.0849042,VALID,19.3033,VALID,120,VALID,0.991832,
2004-06-11, 01:58:00,VALID,917.485,VALID,0,VALID,100,VALID,-0.0849042,VALID,19.2613,VALID,115,VALID,0.86319,
2004-06-11, 01:59:00,VALID,917.464,VALID,0,VALID,100,VALID,-0.0849042,VALID,19.2097,VALID,117,VALID,0.940799,
2004-06-11, 02:00:00,VALID,917.465,VALID,0,VALID,100,VALID,-0.101885,VALID,19.1739,VALID,110,VALID,1.16855,
2004-06-11, 02:01:00,VALID,917.446,VALID,0,VALID,100,VALID,-0.101885,VALID,19.1585,VALID,119,VALID,1.02858,
2004-06-11, 02:02:00,VALID,917.427,VALID,0,VALID,100,VALID,-0.101885,VALID,19.1543,VALID,130,VALID,1.33312,
2004-06-11, 02:03:00,VALID,917.433,VALID,0,VALID,100,VALID,-0.101885,VALID,19.1806,VALID,133,VALID,1.32988,
2004-06-11, 02:04:00,VALID,917.406,VALID,0,VALID,100,VALID,-0.101885,VALID,19.239,VALID,134,VALID,1.54688,
2004-06-11, 02:05:00,VALID,917.407,VALID,0,VALID,100,VALID,-0.0509425,VALID,19.2896,VALID,129,VALID,1.48349,
2004-06-11, 02:06:00,VALID,917.388,VALID,0,VALID,100,VALID,0,VALID,19.3016,VALID,134,VALID,1.43643,
2004-06-11, 02:07:00,VALID,917.366,VALID,0,VALID,100,VALID,0.0339617,VALID,19.3046,VALID,130,VALID,1.3125,
2004-06-11, 02:08:00,VALID,917.345,VALID,0,VALID,100,VALID,0,VALID,19.315,VALID,134,VALID,1.40234,
2004-06-11, 02:09:00,VALID,917.324,VALID,0,VALID,100,VALID,0,VALID,19.3182,VALID,134,VALID,1.59617,
2004-06-11, 02:10:00,VALID,917.307,VALID,0,VALID,100,VALID,0,VALID,19.315,VALID,133,VALID,1.48661,
2004-06-11, 02:11:00,VALID,917.294,VALID,0,VALID,100,VALID,0,VALID,19.3309,VALID,136,VALID,1.74665,
2004-06-11, 02:12:00,VALID,917.293,VALID,0,VALID,100,VALID,0,VALID,19.3736,VALID,125,VALID,1.33613,
2004-06-11, 02:13:00,VALID,917.297,VALID,0,VALID,100,VALID,0,VALID,19.3602,VALID,119,VALID,1.07143,
2004-06-11, 02:14:00,VALID,917.302,VALID,0,VALID,100,VALID,0,VALID,19.3118,VALID,106,VALID,1.01916,
2004-06-11, 02:15:00,VALID,917.299,VALID,0,VALID,100,VALID,0,VALID,19.2762,VALID,114,VALID,0.900136,
2004-06-11, 02:16:00,VALID,917.279,VALID,0,VALID,100,VALID,0.0509425,VALID,19.3177,VALID,111,VALID,1.7502,
2004-06-11, 02:17:00,VALID,917.283,VALID,0,VALID,100,VALID,0,VALID,19.3505,VALID,99,VALID,1.41025,
2004-06-11, 02:18:00,VALID,917.279,VALID,0,VALID,100,VALID,0.0339617,VALID,19.3567,VALID,109,VALID,1.45331,
2004-06-11, 02:19:00,VALID,917.287,VALID,0,VALID,100,VALID,0.0169808,VALID,19.3669,VALID,118,VALID,1.50945,
2004-06-11, 02:20:00,VALID,917.291,VALID,0,VALID,100,VALID,0,VALID,19.3704,VALID,121,VALID,1.32961,
2004-06-11, 02:21:00,VALID,917.282,VALID,0,VALID,100,VALID,0,VALID,19.3763,VALID,130,VALID,1.41101,
2004-06-11, 02:22:00,VALID,917.265,VALID,0,VALID,100,VALID,0.0509425,VALID,19.3989,VALID,118,VALID,1.59531,
2004-06-11, 02:23:00,VALID,917.218,VALID,0,VALID,100,VALID,0,VALID,19.3664,VALID,56,VALID,1.12082,
2004-06-11, 02:24:00,VALID,917.213,VALID,0,VALID,100,VALID,0,VALID,19.2892,VALID,55,VALID,0.85556,
2004-06-11, 02:25:00,VALID,917.185,VALID,0,VALID,100,VALID,-0.0169808,VALID,19.2472,VALID,105,VALID,1.87151,
2004-06-11, 02:26:00,VALID,917.179,VALID,0,VALID,100,VALID,0.0169808,VALID,19.2795,VALID,119,VALID,2.35033,
2004-06-11, 02:27:00,VALID,917.158,VALID,0,VALID,100,VALID,0,VALID,19.3277,VALID,117,VALID,1.70629,
2004-06-11, 02:28:00,VALID,917.122,VALID,0,VALID,100,VALID,0,VALID,19.3599,VALID,125,VALID,1.22168,
2004-06-11, 02:29:00,VALID,917.098,VALID,0,VALID,100,VALID,0,VALID,19.3575,VALID,104,VALID,1.27706,
2004-06-11, 02:30:00,VALID,917.072,VALID,0,VALID,100,VALID,0,VALID,19.3212,VALID,101,VALID,1.47547,
2004-06-11, 02:31:00,VALID,917.037,VALID,0,VALID,100,VALID,-0.0169808,VALID,19.3026,VALID,90,VALID,1.26617,
2004-06-11, 02:32:00,VALID,917.008,VALID,0,VALID,100,VALID,-0.0169808,VALID,19.2638,VALID,94,VALID,1.27362,
2004-06-11, 02:33:00,VALID,916.979,VALID,0,VALID,100,VALID,0.0169808,VALID,19.2504,VALID,84,VALID,1.5696,
2004-06-11, 02:34:00,VALID,916.949,VALID,0,VALID,100,VALID,0,VALID,19.234,VALID,95,VALID,1.23711,
2004-06-11, 02:35:00,VALID,916.923,VALID,0,VALID,100,VALID,0,VALID,19.2313,VALID,106,VALID,1.6756,
2004-06-11, 02:36:00,VALID,916.909,VALID,0,VALID,100,VALID,-0.0339617,VALID,19.2248,VALID,92,VALID,1.69404,
2004-06-11, 02:37:00,VALID,916.888,VALID,0,VALID,100,VALID,-0.0169808,VALID,19.232,VALID,119,VALID,1.01314,
2004-06-11, 02:38:00,VALID,916.86,VALID,0,VALID,100,VALID,0,VALID,19.2084,VALID,133,VALID,1.44812,
2004-06-11, 02:39:00,VALID,916.839,VALID,0,VALID,100,VALID,0,VALID,19.231,VALID,129,VALID,1.67315,
2004-06-11, 02:40:00,VALID,916.802,VALID,0,VALID,100,VALID,0,VALID,19.2313,VALID,131,VALID,1.69493,
2004-06-11, 02:41:00,VALID,916.802,VALID,0,VALID,100,VALID,0.0169808,VALID,19.234,VALID,126,VALID,1.9176,
2004-06-11, 02:42:00,VALID,916.789,VALID,0,VALID,100,VALID,0,VALID,19.241,VALID,131,VALID,1.39688,
2004-06-11, 02:43:00,VALID,916.772,VALID,0,VALID,100,VALID,0,VALID,19.2348,VALID,140,VALID,1.56975,
2004-06-11, 02:44:00,VALID,916.756,VALID,0,VALID,100,VALID,0,VALID,19.2507,VALID,156,VALID,1.13746,
2004-06-11, 02:45:00,VALID,916.74,VALID,0,VALID,100,VALID,-0.0169808,VALID,19.2442,VALID,139,VALID,0.737351,
2004-06-11, 02:46:00,VALID,916.716,VALID,0,VALID,100,VALID,-0.0169808,VALID,19.2348,VALID,131,VALID,1.14596,
2004-06-11, 02:47:00,VALID,916.708,VALID,0,VALID,100,VALID,0,VALID,19.2149,VALID,125,VALID,1.21689,
2004-06-11, 02:48:00,VALID,916.693,VALID,0,VALID,100,VALID,-0.0169808,VALID,19.1958,VALID,127,VALID,1.3998,
2004-06-11, 02:49:00,VALID,916.684,VALID,0,VALID,100,VALID,0,VALID,19.1826,VALID,127,VALID,1.20567,
2004-06-11, 02:50:00,VALID,916.683,VALID,0,VALID,100,VALID,0,VALID,19.1695,VALID,124,VALID,0.98266,
2004-06-11, 02:51:00,VALID,916.666,VALID,0,VALID,100,VALID,-0.0169808,VALID,19.1344,VALID,97,VALID,0.452172,
2004-06-11, 02:52:00,VALID,916.661,VALID,0,VALID,100,VALID,-0.0169808,VALID,19.1088,VALID,106,VALID,0.862043,
2004-06-11, 02:53:00,VALID,916.656,VALID,0,VALID,100,VALID,-0.0169808,VALID,19.0793,VALID,111,VALID,0.888139,
2004-06-11, 02:54:00,VALID,916.65,VALID,0,VALID,100,VALID,-0.0169808,VALID,19.0634,VALID,102,VALID,0.879794,
2004-06-11, 02:55:00,VALID,916.623,VALID,0,VALID,100,VALID,-0.0169808,VALID,19.0768,VALID,103,VALID,0.886347,
2004-06-11, 02:56:00,VALID,916.604,VALID,0,VALID,100,VALID,-0.0509425,VALID,19.0924,VALID,115,VALID,0.918527,
2004-06-11, 02:57:00,VALID,916.593,VALID,0,VALID,100,VALID,0,VALID,19.0964,VALID,118,VALID,0.848828,
2004-06-11, 02:58:00,VALID,916.59,VALID,0,VALID,100,VALID,0,VALID,19.0832,VALID,118,VALID,0.599159,
2004-06-11, 02:59:00,VALID,916.602,VALID,0,VALID,99.9853,VALID,0,VALID,18.9924,VALID,45,VALID,0.902521,
2004-06-11, 03:00:00,VALID,916.603,VALID,0,VALID,99.8235,VALID,0,VALID,18.8376,VALID,33,VALID,1.18197,
2004-06-11, 03:01:00,VALID,916.62,VALID,0,VALID,99.8868,VALID,-0.0169808,VALID,18.7562,VALID,45,VALID,0.961119,
2004-06-11, 03:02:00,VALID,916.627,VALID,0,VALID,100,VALID,-0.0339617,VALID,18.7989,VALID,59,VALID,0.708452,
2004-06-11, 03:03:00,VALID,916.628,VALID,0,VALID,100,VALID,-0.0339617,VALID,18.8503,VALID,67,VALID,0.651786,
2004-06-11, 03:04:00,VALID,916.648,VALID,0,VALID,100,VALID,-0.0339617,VALID,18.9082,VALID,71,VALID,0.441406,
2004-06-11, 03:05:00,VALID,916.671,VALID,0,VALID,100,VALID,-0.0339617,VALID,18.9345,VALID,68,VALID,0.221755,
2004-06-11, 03:06:00,VALID,916.673,VALID,0,VALID,99.9964,VALID,-0.0339617,VALID,18.8667,VALID,28,VALID,0.706424,
2004-06-11, 03:07:00,VALID,916.665,VALID,0,VALID,99.9802,VALID,-0.0339617,VALID,18.7862,VALID,9,VALID,0.952762,
2004-06-11, 03:08:00,VALID,916.654,VALID,0,VALID,100,VALID,-0.0679233,VALID,18.7989,VALID,9,VALID,0.760174,
2004-06-11, 03:09:00,VALID,916.627,VALID,0,VALID,100,VALID,0.0169808,VALID,18.8083,VALID,9,VALID,0.340799,
2004-06-11, 03:10:00,VALID,916.612,VALID,0,VALID,100,VALID,0,VALID,18.78,VALID,15,VALID,0.426525,
2004-06-11, 03:11:00,VALID,916.598,VALID,0,VALID,100,VALID,0,VALID,18.7991,VALID,92,VALID,0.891797,
2004-06-11, 03:12:00,VALID,916.574,VALID,0,VALID,100,VALID,0,VALID,18.8061,VALID,120,VALID,1.03995,
2004-06-11, 03:13:00,VALID,916.568,VALID,0,VALID,100,VALID,-0.0169808,VALID,18.8247,VALID,112,VALID,1.22154,
2004-06-11, 03:14:00,VALID,916.57,VALID,0,VALID,100,VALID,-0.0339617,VALID,18.8381,VALID,100,VALID,0.956759,
2004-06-11, 03:15:00,VALID,916.573,VALID,0,VALID,100,VALID,-0.0169808,VALID,18.8321,VALID,79,VALID,0.781068,
2004-06-11, 03:16:00,VALID,916.577,VALID,0,VALID,100,VALID,-0.0169808,VALID,18.7964,VALID,85,VALID,0.769245,
2004-06-11, 03:17:00,VALID,916.567,VALID,0,VALID,100,VALID,-0.0169808,VALID,18.7574,VALID,73,VALID,0.719993,
2004-06-11, 03:18:00,VALID,916.566,VALID,0,VALID,100,VALID,-0.0169808,VALID,18.7216,VALID,80,VALID,0.774581,
2004-06-11, 03:19:00,VALID,916.57,VALID,0,VALID,100,VALID,-0.0339617,VALID,18.7415,VALID,82,VALID,0.848828,
2004-06-11, 03:20:00,VALID,916.57,VALID,0,VALID,100,VALID,0.0169808,VALID,18.7276,VALID,79,VALID,0.700238,
2004-06-11, 03:21:00,VALID,916.585,VALID,0,VALID,100,VALID,0.0679233,VALID,18.7498,VALID,93,VALID,0.908736,
2004-06-11, 03:22:00,VALID,916.588,VALID,0,VALID,100,VALID,0.0509425,VALID,18.7848,VALID,99,VALID,0.687314,
2004-06-11, 03:23:00,VALID,916.591,VALID,0,VALID,100,VALID,0.0849042,VALID,18.7917,VALID,67,VALID,0.591025,
2004-06-11, 03:24:00,VALID,916.591,VALID,0,VALID,100,VALID,0.0849042,VALID,18.7622,VALID,57,VALID,0.815799,
2004-06-11, 03:25:00,VALID,916.596,VALID,0,VALID,100,VALID,0.101885,VALID,18.7694,VALID,58,VALID,1.03869,
2004-06-11, 03:26:00,VALID,916.585,VALID,0,VALID,100,VALID,0.101885,VALID,18.7883,VALID,65,VALID,0.831032,
2004-06-11, 03:27:00,VALID,916.591,VALID,0,VALID,100,VALID,0.0339617,VALID,18.8146,VALID,91,VALID,0.979911,
2004-06-11, 03:28:00,VALID,916.572,VALID,0,VALID,100,VALID,0.0679233,VALID,18.8468,VALID,115,VALID,1.27197,
2004-06-11, 03:29:00,VALID,916.554,VALID,0,VALID,100,VALID,0.0849042,VALID,18.8565,VALID,137,VALID,1.06729,
2004-06-11, 03:30:00,VALID,916.542,VALID,0,VALID,100,VALID,0.0509425,VALID,18.8468,VALID,131,VALID,1.21021,
2004-06-11, 03:31:00,VALID,916.508,VALID,0,VALID,100,VALID,0.0679233,VALID,18.8466,VALID,131,VALID,1.14737,
2004-06-11, 03:32:00,VALID,916.495,VALID,0,VALID,100,VALID,0.0339617,VALID,18.8531,VALID,131,VALID,1.08957,
2004-06-11, 03:33:00,VALID,916.479,VALID,0,VALID,100,VALID,0.0679233,VALID,18.8468,VALID,132,VALID,1.0506,
2004-06-11, 03:34:00,VALID,916.453,VALID,0,VALID,100,VALID,0.0509425,VALID,18.8503,VALID,137,VALID,0.959498,
2004-06-11, 03:35:00,VALID,916.446,VALID,0,VALID,100,VALID,0.0339617,VALID,18.8344,VALID,131,VALID,0.654588,
2004-06-11, 03:36:00,VALID,916.444,VALID,0,VALID,100,VALID,0,VALID,18.822,VALID,139,VALID,0.491616,
2004-06-11, 03:37:00,VALID,916.448,VALID,0,VALID,99.9728,VALID,-0.0169808,VALID,18.7922,VALID,142,VALID,0.0450149,
2004-06-11, 03:38:00,VALID,916.422,VALID,0,VALID,99.4916,VALID,0,VALID,18.7194,VALID,142,VALID,0.0197088,
2004-06-11, 03:39:00,VALID,916.402,VALID,0,VALID,99.2055,VALID,-0.0339617,VALID,18.593,VALID,120,VALID,0.461128,
2004-06-11, 03:40:00,VALID,916.389,VALID,0,VALID,99.1737,VALID,-0.0339617,VALID,18.5157,VALID,98,VALID,0.674716,
2004-06-11, 03:41:00,VALID,916.376,VALID,0,VALID,99.5234,VALID,0,VALID,18.4899,VALID,96,VALID,0.616797,